| time (UTC) | temp F | wind direction | speed MPH | gust MPH | rain 1hr in | rain 24hr in | rain mn in | humidity % | barometer mb |
| 20260507093550 | 51 | 271 | 2.0 | 14.0 | 0.00 | 0.06 | 0.05 | 75 | 1022.9 |
| 20260507093050 | 51 | 267 | 1.0 | 12.0 | 0.00 | 0.06 | 0.05 | 75 | 1022.9 |
| 20260507092550 | 51 | 284 | 3.0 | 9.0 | 0.00 | 0.06 | 0.05 | 75 | 1022.8 |
| 20260507092051 | 51 | 308 | 2.0 | 5.0 | 0.00 | 0.06 | 0.05 | 75 | 1022.8 |
| 20260507091552 | 51 | 225 | 2.0 | 10.0 | 0.00 | 0.06 | 0.05 | 75 | 1022.8 |
| 20260507091050 | 51 | 294 | 3.0 | 10.0 | 0.00 | 0.06 | 0.05 | 75 | 1022.9 |
| 20260507090551 | 51 | 279 | 4.0 | 12.0 | 0.00 | 0.06 | 0.05 | 75 | 1022.8 |
| 20260507090049 | 51 | 265 | 5.0 | 12.0 | 0.00 | 0.06 | 0.05 | 74 | 1022.9 |
| 20260507085549 | 52 | 263 | 3.0 | 10.0 | 0.00 | 0.10 | 0.05 | 74 | 1022.9 |
| 20260507085049 | 52 | 265 | 4.0 | 10.0 | 0.00 | 0.10 | 0.05 | 74 | 1022.9 |
| 20260507084549 | 52 | 281 | 1.0 | 9.0 | 0.00 | 0.10 | 0.05 | 73 | 1022.7 |
| 20260507084046 | 52 | 271 | 4.0 | 9.0 | 0.00 | 0.10 | 0.05 | 73 | 1022.8 |
| 20260507083546 | 52 | 279 | 2.0 | 11.0 | 0.00 | 0.10 | 0.05 | 73 | 1022.8 |
| 20260507083046 | 52 | 256 | 6.0 | 11.0 | 0.00 | 0.10 | 0.05 | 72 | 1022.8 |
| 20260507082545 | 52 | 300 | 1.0 | 10.0 | 0.00 | 0.10 | 0.05 | 72 | 1022.7 |
| 20260507082047 | 52 | 257 | 1.0 | 11.0 | 0.00 | 0.10 | 0.05 | 72 | 1022.7 |
| 20260507081545 | 52 | 280 | 2.0 | 13.0 | 0.00 | 0.10 | 0.05 | 72 | 1022.6 |
| 20260507081047 | 52 | 321 | 4.0 | 13.0 | 0.00 | 0.10 | 0.05 | 71 | 1022.5 |
| 20260507080545 | 52 | 252 | 5.0 | 11.0 | 0.00 | 0.10 | 0.05 | 71 | 1022.4 |
| 20260507080046 | 52 | 278 | 4.0 | 10.0 | 0.00 | 0.10 | 0.05 | 71 | 1022.4 |
| 20260507075545 | 52 | 236 | 3.0 | 11.0 | 0.00 | 0.19 | 0.05 | 70 | 1022.3 |
| 20260507075045 | 53 | 261 | 6.0 | 12.0 | 0.00 | 0.19 | 0.05 | 70 | 1022.3 |
| 20260507074549 | 53 | 242 | 5.0 | 13.0 | 0.00 | 0.19 | 0.05 | 69 | 1022.4 |
| 20260507074049 | 53 | 269 | 3.0 | 13.0 | 0.00 | 0.19 | 0.05 | 68 | 1022.4 |
| 20260507073549 | 53 | 244 | 4.0 | 13.0 | 0.00 | 0.19 | 0.05 | 68 | 1022.4 |
| 20260507073101 | 53 | 279 | 3.0 | 10.0 | 0.00 | 0.19 | 0.05 | 68 | 1022.5 |
| 20260507072549 | 53 | 260 | 4.0 | 14.0 | 0.00 | 0.19 | 0.05 | 68 | 1022.3 |
| 20260507072049 | 53 | 193 | 3.0 | 12.0 | 0.00 | 0.19 | 0.05 | 68 | 1022.3 |
| 20260507071549 | 53 | 246 | 4.0 | 9.0 | 0.00 | 0.19 | 0.05 | 68 | 1022.3 |
| 20260507071048 | 53 | 242 | 3.0 | 9.0 | 0.00 | 0.19 | 0.05 | 68 | 1022.3 |
| 20260507070548 | 53 | 242 | 2.0 | 7.0 | 0.00 | 0.19 | 0.05 | 68 | 1022.2 |
| 20260507070056 | 53 | 249 | 1.0 | 9.0 | 0.00 | 0.19 | 0.05 | 67 | 1022.2 |
| 20260507065548 | 53 | 244 | 2.0 | 10.0 | 0.00 | 0.19 | 0.05 | 67 | 1022.2 |
| 20260507065048 | 54 | 271 | 3.0 | 10.0 | 0.00 | 0.19 | 0.05 | 66 | 1022.2 |
| 20260507064553 | 54 | 247 | 2.0 | 10.0 | 0.00 | 0.19 | 0.05 | 66 | 1022.2 |
| 20260507064043 | 54 | 267 | 3.0 | 11.0 | 0.00 | 0.19 | 0.05 | 66 | 1022.3 |
| 20260507063543 | 54 | 257 | 3.0 | 13.0 | 0.00 | 0.19 | 0.05 | 66 | 1022.4 |
| 20260507063043 | 54 | 259 | 5.0 | 13.0 | 0.00 | 0.19 | 0.05 | 66 | 1022.5 |
| 20260507062543 | 54 | 236 | 5.0 | 12.0 | 0.00 | 0.19 | 0.05 | 67 | 1022.4 |
| 20260507062043 | 54 | 272 | 5.0 | 12.0 | 0.00 | 0.19 | 0.05 | 69 | 1022.3 |
| 20260507061543 | 54 | 302 | 5.0 | 11.0 | 0.00 | 0.19 | 0.05 | 70 | 1022.4 |
| 20260507061044 | 53 | 229 | 2.0 | 8.0 | 0.01 | 0.19 | 0.05 | 71 | 1022.4 |
| 20260507060542 | 53 | 262 | 1.0 | 8.0 | 0.01 | 0.19 | 0.05 | 71 | 1022.6 |
| 20260507060044 | 53 | 231 | 2.0 | 6.0 | 0.01 | 0.19 | 0.05 | 72 | 1022.5 |
| 20260507055543 | 53 | 223 | 2.0 | 10.0 | 0.01 | 0.19 | 0.05 | 72 | 1022.5 |
| 20260507055041 | 53 | 227 | 3.0 | 10.0 | 0.01 | 0.19 | 0.05 | 72 | 1022.4 |
| 20260507054542 | 53 | 234 | 2.0 | 10.0 | 0.01 | 0.19 | 0.05 | 74 | 1022.3 |
| 20260507054043 | 53 | 259 | 2.0 | 6.0 | 0.01 | 0.19 | 0.05 | 74 | 1022.4 |
| 20260507053543 | 53 | 254 | 1.0 | 7.0 | 0.01 | 0.19 | 0.05 | 75 | 1022.4 |
| 20260507053044 | 53 | 263 | 2.0 | 7.0 | 0.01 | 0.19 | 0.05 | 74 | 1022.4 |
| 20260507052543 | 53 | 224 | 3.0 | 11.0 | 0.01 | 0.19 | 0.05 | 74 | 1022.5 |
| 20260507052043 | 53 | 273 | 3.0 | 12.0 | 0.01 | 0.19 | 0.05 | 74 | 1022.5 |
| 20260507051543 | 54 | 277 | 3.0 | 11.0 | 0.01 | 0.19 | 0.05 | 74 | 1022.5 |
| 20260507051042 | 54 | 267 | 2.0 | 8.0 | 0.00 | 0.18 | 0.04 | 74 | 1022.5 |
| 20260507050542 | 54 | 248 | 1.0 | 9.0 | 0.00 | 0.18 | 0.04 | 73 | 1022.4 |
| 20260507050043 | 54 | 290 | 4.0 | 9.0 | 0.00 | 0.18 | 0.04 | 73 | 1022.3 |
| 20260507045542 | 54 | 281 | 3.0 | 14.0 | 0.00 | 0.18 | 0.04 | 71 | 1022.4 |
| 20260507045042 | 55 | 256 | 7.0 | 14.0 | 0.00 | 0.18 | 0.04 | 68 | 1022.5 |
| 20260507044556 | 55 | 259 | 3.0 | 12.0 | 0.00 | 0.18 | 0.04 | 66 | 1022.4 |
| 20260507044040 | 55 | 298 | 5.0 | 12.0 | 0.00 | 0.18 | 0.04 | 66 | 1022.3 |
| 20260507043539 | 56 | 296 | 5.0 | 14.0 | 0.00 | 0.18 | 0.04 | 65 | 1022.1 |
| 20260507043041 | 56 | 275 | 4.0 | 13.0 | 0.00 | 0.18 | 0.04 | 64 | 1022.2 |
| 20260507042539 | 56 | 188 | 7.0 | 15.0 | 0.00 | 0.18 | 0.04 | 62 | 1022.2 |
| 20260507042037 | 56 | 229 | 5.0 | 15.0 | 0.00 | 0.18 | 0.04 | 64 | 1022.4 |
| 20260507041544 | 55 | 244 | 5.0 | 10.0 | 0.00 | 0.18 | 0.04 | 65 | 1022.4 |
| 20260507041037 | 55 | 236 | 6.0 | 13.0 | 0.00 | 0.18 | 0.04 | 67 | 1022.2 |
| 20260507040536 | 54 | 257 | 3.0 | 13.0 | 0.00 | 0.18 | 0.04 | 68 | 1022.2 |
| 20260507040042 | 54 | 250 | 3.0 | 13.0 | 0.00 | 0.18 | 0.04 | 68 | 1022.4 |
| 20260507035536 | 54 | 300 | 6.0 | 14.0 | 0.00 | 0.18 | 0.04 | 69 | 1022.3 |
| 20260507035036 | 54 | 221 | 8.0 | 14.0 | 0.00 | 0.18 | 0.04 | 67 | 1022.3 |
| 20260507034542 | 54 | 281 | 3.0 | 13.0 | 0.00 | 0.18 | 0.04 | 65 | 1022.4 |
| 20260507034034 | 54 | 212 | 7.0 | 15.0 | 0.00 | 0.18 | 0.04 | 64 | 1022.4 |
| 20260507033535 | 54 | 145 | 6.0 | 17.0 | 0.00 | 0.18 | 0.04 | 65 | 1022.3 |
| 20260507033044 | 54 | 240 | 7.0 | 17.0 | 0.00 | 0.18 | 0.04 | 65 | 1022.5 |
| 20260507032534 | 54 | 209 | 3.0 | 13.0 | 0.00 | 0.18 | 0.04 | 64 | 1022.6 |
| 20260507032040 | 54 | 241 | 7.0 | 13.0 | 0.00 | 0.18 | 0.04 | 64 | 1022.6 |
| 20260507031550 | 54 | 283 | 4.0 | 11.0 | 0.00 | 0.18 | 0.04 | 64 | 1022.5 |
| 20260507031033 | 54 | 207 | 5.0 | 16.0 | 0.00 | 0.18 | 0.04 | 64 | 1022.7 |
| 20260507030533 | 55 | 242 | 5.0 | 16.0 | 0.00 | 0.18 | 0.04 | 65 | 1022.6 |
| 20260507030038 | 55 | 196 | 5.0 | 16.0 | 0.00 | 0.18 | 0.04 | 66 | 1022.7 |
| 20260507025532 | 55 | 225 | 6.0 | 16.0 | 0.00 | 0.18 | 0.04 | 64 | 1022.5 |
| 20260507025036 | 55 | 213 | 3.0 | 12.0 | 0.00 | 0.18 | 0.04 | 61 | 1022.6 |
| 20260507024539 | 55 | 301 | 5.0 | 18.0 | 0.00 | 0.18 | 0.04 | 60 | 1022.6 |
| 20260507024033 | 55 | 203 | 6.0 | 18.0 | 0.00 | 0.18 | 0.04 | 61 | 1022.6 |
| 20260507023532 | 55 | 209 | 7.0 | 15.0 | 0.00 | 0.18 | 0.04 | 61 | 1022.8 |
| 20260507023031 | 55 | 266 | 7.0 | 16.0 | 0.00 | 0.18 | 0.04 | 61 | 1022.7 |
| 20260507022531 | 55 | 210 | 6.0 | 14.0 | 0.00 | 0.18 | 0.04 | 62 | 1022.8 |
| 20260507022031 | 55 | 190 | 4.0 | 16.0 | 0.00 | 0.18 | 0.04 | 63 | 1022.8 |
| 20260507021530 | 54 | 208 | 7.0 | 13.0 | 0.00 | 0.18 | 0.04 | 63 | 1022.9 |
| 20260507021028 | 54 | 281 | 4.0 | 12.0 | 0.00 | 0.18 | 0.04 | 64 | 1022.9 |
| 20260507020527 | 53 | 205 | 4.0 | 13.0 | 0.00 | 0.18 | 0.04 | 64 | 1022.9 |
| 20260507020027 | 53 | 202 | 8.0 | 13.0 | 0.00 | 0.18 | 0.04 | 63 | 1023.0 |
| 20260507015526 | 53 | 257 | 6.0 | 15.0 | 0.00 | 0.18 | 0.04 | 63 | 1023.1 |
| 20260507015025 | 53 | 223 | 5.0 | 14.0 | 0.00 | 0.18 | 0.04 | 64 | 1023.1 |
| 20260507014535 | 53 | 261 | 7.0 | 12.0 | 0.00 | 0.18 | 0.04 | 65 | 1023.1 |
| 20260507014024 | 53 | 200 | 2.0 | 11.0 | 0.00 | 0.18 | 0.04 | 65 | 1023.1 |
| 20260507013522 | 53 | 258 | 4.0 | 17.0 | 0.00 | 0.18 | 0.04 | 65 | 1023.1 |
| 20260507013027 | 52 | 224 | 6.0 | 17.0 | 0.00 | 0.18 | 0.04 | 66 | 1023.0 |
| 20260507012523 | 52 | 261 | 6.0 | 13.0 | 0.00 | 0.18 | 0.04 | 67 | 1022.9 |
| 20260507012019 | 52 | 248 | 7.0 | 12.0 | 0.00 | 0.18 | 0.04 | 69 | 1023.0 |
| 20260507011528 | 51 | 284 | 3.0 | 12.0 | 0.00 | 0.18 | 0.04 | 70 | 1023.0 |
| 20260507011015 | 51 | 236 | 6.0 | 12.0 | 0.00 | 0.18 | 0.04 | 71 | 1023.0 |
| 20260507010516 | 50 | 236 | 4.0 | 12.0 | 0.00 | 0.18 | 0.04 | 71 | 1023.1 |
| 20260507010018 | 50 | 257 | 5.0 | 13.0 | 0.00 | 0.18 | 0.04 | 71 | 1023.1 |
| 20260507005514 | 50 | 234 | 5.0 | 13.0 | 0.00 | 0.18 | 0.04 | 72 | 1023.2 |
| 20260507005014 | 49 | 236 | 7.0 | 10.0 | 0.00 | 0.18 | 0.04 | 72 | 1023.1 |
| 20260507004511 | 49 | 205 | 3.0 | 14.0 | 0.00 | 0.18 | 0.04 | 72 | 1023.2 |
| 20260507004012 | 49 | 295 | 7.0 | 14.0 | 0.00 | 0.18 | 0.04 | 72 | 1023.0 |
| 20260507003512 | 49 | 287 | 5.0 | 13.0 | 0.00 | 0.18 | 0.04 | 72 | 1023.0 |
| 20260507003009 | 49 | 267 | 4.0 | 14.0 | 0.00 | 0.18 | 0.04 | 72 | 1023.0 |
| 20260507002509 | 49 | 220 | 6.0 | 14.0 | 0.00 | 0.18 | 0.04 | 72 | 1022.9 |
| 20260507002008 | 49 | 223 | 4.0 | 12.0 | 0.00 | 0.18 | 0.04 | 73 | 1022.9 |
| 20260507001509 | 49 | 267 | 5.0 | 15.0 | 0.00 | 0.18 | 0.04 | 73 | 1022.9 |
| 20260507001007 | 49 | 250 | 4.0 | 15.0 | 0.00 | 0.18 | 0.04 | 73 | 1022.7 |
| 20260507000506 | 48 | 209 | 5.0 | 13.0 | 0.00 | 0.18 | 0.04 | 73 | 1022.6 |
| 20260507000004 | 48 | 254 | 5.0 | 12.0 | 0.00 | 0.18 | 0.04 | 74 | 1022.5 |
| 20260506235504 | 48 | 246 | 4.0 | 10.0 | 0.00 | 0.18 | 0.04 | 74 | 1022.4 |
| 20260506235002 | 48 | 246 | 2.0 | 10.0 | 0.00 | 0.18 | 0.04 | 74 | 1022.5 |
| 20260506234504 | 48 | 220 | 4.0 | 13.0 | 0.00 | 0.18 | 0.04 | 74 | 1022.5 |
| 20260506234004 | 48 | 264 | 5.0 | 11.0 | 0.00 | 0.18 | 0.04 | 74 | 1022.5 |
| 20260506233503 | 47 | 240 | 5.0 | 12.0 | 0.00 | 0.18 | 0.04 | 75 | 1022.4 |
| 20260506233002 | 47 | 257 | 3.0 | 11.0 | 0.00 | 0.18 | 0.04 | 75 | 1022.2 |
| 20260506232500 | 47 | 257 | 4.0 | 11.0 | 0.00 | 0.18 | 0.04 | 76 | 1022.3 |
| 20260506232102 | 47 | 262 | 6.0 | 10.0 | 0.00 | 0.18 | 0.04 | 76 | 1022.2 |
| 20260506231559 | 47 | 219 | 3.0 | 17.0 | 0.00 | 0.18 | 0.04 | 77 | 1022.2 |
| 20260506231059 | 47 | 186 | 4.0 | 17.0 | 0.00 | 0.18 | 0.04 | 77 | 1022.2 |
| 20260506230556 | 46 | 226 | 3.0 | 11.0 | 0.00 | 0.18 | 0.04 | 78 | 1022.3 |
| 20260506225553 | 45 | 279 | 4.0 | 12.0 | 0.00 | 0.18 | 0.04 | 78 | 1022.2 |
| 20260506225054 | 45 | 271 | 4.0 | 10.0 | 0.00 | 0.18 | 0.04 | 79 | 1022.2 |
| 20260506224554 | 45 | 274 | 3.0 | 10.0 | 0.00 | 0.18 | 0.04 | 79 | 1022.1 |
| 20260506224046 | 44 | 252 | 3.0 | 12.0 | 0.00 | 0.18 | 0.04 | 80 | 1022.0 |
| 20260506223547 | 44 | 254 | 4.0 | 12.0 | 0.00 | 0.18 | 0.04 | 80 | 1021.9 |
| 20260506223045 | 44 | 295 | 4.0 | 12.0 | 0.00 | 0.18 | 0.04 | 80 | 1021.9 |
| 20260506222545 | 43 | 252 | 3.0 | 14.0 | 0.00 | 0.18 | 0.04 | 80 | 1021.8 |
| 20260506222042 | 43 | 243 | 2.0 | 14.0 | 0.00 | 0.18 | 0.04 | 81 | 1021.8 |
| 20260506221541 | 43 | 250 | 6.0 | 16.0 | 0.00 | 0.18 | 0.04 | 81 | 1021.8 |
| 20260506221039 | 43 | 268 | 7.0 | 16.0 | 0.00 | 0.18 | 0.04 | 81 | 1021.7 |
| 20260506220538 | 42 | 262 | 5.0 | 13.0 | 0.00 | 0.18 | 0.04 | 81 | 1021.6 |
| 20260506220037 | 42 | 310 | 6.0 | 13.0 | 0.00 | 0.18 | 0.04 | 82 | 1021.5 |
| 20260506215535 | 42 | 282 | 8.0 | 15.0 | 0.00 | 0.18 | 0.04 | 82 | 1021.6 |
| 20260506215033 | 42 | 288 | 5.0 | 15.0 | 0.00 | 0.18 | 0.04 | 82 | 1021.4 |
| 20260506214533 | 42 | 305 | 5.0 | 15.0 | 0.00 | 0.18 | 0.04 | 82 | 1021.3 |
| 20260506214034 | 42 | 268 | 6.0 | 15.0 | 0.00 | 0.18 | 0.04 | 82 | 1021.2 |
| 20260506213533 | 42 | 313 | 7.0 | 14.0 | 0.00 | 0.18 | 0.04 | 83 | 1021.1 |
| 20260506213032 | 42 | 248 | 7.0 | 14.0 | 0.00 | 0.18 | 0.04 | 83 | 1021.0 |
| 20260506212530 | 41 | 268 | 2.0 | 16.0 | 0.00 | 0.18 | 0.04 | 83 | 1020.9 |
| 20260506212028 | 41 | 303 | 5.0 | 18.0 | 0.00 | 0.18 | 0.04 | 83 | 1020.9 |
| 20260506211526 | 41 | 239 | 7.0 | 18.0 | 0.00 | 0.18 | 0.04 | 83 | 1021.0 |
| 20260506211024 | 41 | 283 | 6.0 | 14.0 | 0.00 | 0.18 | 0.04 | 83 | 1020.8 |
| 20260506210524 | 41 | 271 | 6.0 | 14.0 | 0.00 | 0.18 | 0.04 | 83 | 1020.7 |
| 20260506210028 | 41 | 286 | 6.0 | 14.0 | 0.00 | 0.18 | 0.04 | 83 | 1020.7 |
| 20260506205522 | 41 | 278 | 6.0 | 13.0 | 0.00 | 0.18 | 0.04 | 83 | 1020.7 |
| 20260506205022 | 41 | 262 | 6.0 | 11.0 | 0.00 | 0.18 | 0.04 | 83 | 1020.7 |
| 20260506204522 | 41 | 250 | 3.0 | 12.0 | 0.00 | 0.18 | 0.04 | 83 | 1020.6 |
| 20260506204021 | 41 | 289 | 3.0 | 12.0 | 0.00 | 0.18 | 0.04 | 83 | 1020.5 |
| 20260506203520 | 41 | 267 | 4.0 | 12.0 | 0.00 | 0.18 | 0.04 | 84 | 1020.6 |
| 20260506203028 | 41 | 265 | 5.0 | 12.0 | 0.00 | 0.18 | 0.04 | 84 | 1020.5 |
| 20260506202520 | 41 | 258 | 2.0 | 12.0 | 0.00 | 0.18 | 0.04 | 84 | 1020.5 |
| 20260506202020 | 41 | 245 | 5.0 | 12.0 | 0.00 | 0.18 | 0.04 | 84 | 1020.4 |
| 20260506201520 | 41 | 307 | 2.0 | 10.0 | 0.00 | 0.18 | 0.04 | 84 | 1020.4 |
| 20260506201021 | 41 | 242 | 3.0 | 11.0 | 0.00 | 0.18 | 0.04 | 85 | 1020.3 |
| 20260506200520 | 41 | 288 | 3.0 | 11.0 | 0.00 | 0.18 | 0.04 | 85 | 1020.3 |
| 20260506200019 | 41 | 276 | 3.0 | 10.0 | 0.00 | 0.18 | 0.04 | 85 | 1020.2 |
| 20260506195522 | 41 | 284 | 3.0 | 8.0 | 0.00 | 0.18 | 0.04 | 85 | 1020.3 |
| 20260506195018 | 41 | 281 | 3.0 | 8.0 | 0.00 | 0.18 | 0.04 | 84 | 1020.4 |
| 20260506194519 | 41 | 273 | 1.0 | 8.0 | 0.00 | 0.18 | 0.04 | 84 | 1020.5 |
| 20260506194020 | 41 | 230 | 2.0 | 6.0 | 0.00 | 0.18 | 0.04 | 84 | 1020.5 |
| 20260506193520 | 41 | 284 | 1.0 | 7.0 | 0.00 | 0.18 | 0.04 | 84 | 1020.7 |
| 20260506193021 | 41 | 238 | 2.0 | 10.0 | 0.00 | 0.18 | 0.04 | 84 | 1020.6 |
| 20260506192521 | 41 | 298 | 4.0 | 10.0 | 0.00 | 0.18 | 0.04 | 84 | 1020.5 |
| 20260506192021 | 41 | 260 | 4.0 | 12.0 | 0.00 | 0.18 | 0.04 | 84 | 1020.7 |
| 20260506191521 | 41 | 316 | 3.0 | 12.0 | 0.00 | 0.18 | 0.04 | 84 | 1020.6 |
| 20260506191020 | 41 | 273 | 3.0 | 14.0 | 0.00 | 0.18 | 0.04 | 84 | 1020.5 |
| 20260506190519 | 41 | 248 | 3.0 | 14.0 | 0.00 | 0.18 | 0.04 | 84 | 1020.5 |
| 20260506190018 | 41 | 275 | 4.0 | 12.0 | 0.00 | 0.18 | 0.04 | 84 | 1020.3 |
| 20260506185516 | 41 | 305 | 5.0 | 12.0 | 0.00 | 0.18 | 0.04 | 84 | 1020.2 |
| 20260506185016 | 41 | 296 | 6.0 | 12.0 | 0.00 | 0.18 | 0.04 | 84 | 1020.3 |
| 20260506184515 | 41 | 265 | 3.0 | 11.0 | 0.00 | 0.18 | 0.04 | 84 | 1020.1 |
| 20260506184018 | 41 | 264 | 4.0 | 12.0 | 0.00 | 0.18 | 0.04 | 84 | 1020.1 |
| 20260506183514 | 41 | 287 | 5.0 | 15.0 | 0.00 | 0.18 | 0.04 | 84 | 1019.8 |
| 20260506183013 | 41 | 286 | 6.0 | 15.0 | 0.00 | 0.18 | 0.04 | 84 | 1019.8 |
| 20260506182513 | 41 | 242 | 5.0 | 13.0 | 0.00 | 0.18 | 0.04 | 84 | 1019.7 |
| 20260506182012 | 41 | 233 | 5.0 | 13.0 | 0.00 | 0.18 | 0.04 | 85 | 1019.7 |
| 20260506181512 | 41 | 253 | 7.0 | 13.0 | 0.00 | 0.18 | 0.04 | 85 | 1019.6 |
| 20260506181012 | 41 | 261 | 5.0 | 15.0 | 0.00 | 0.18 | 0.04 | 85 | 1019.5 |
| 20260506180513 | 41 | 269 | 5.0 | 15.0 | 0.00 | 0.18 | 0.04 | 85 | 1019.4 |
| 20260506180014 | 41 | 259 | 6.0 | 14.0 | 0.00 | 0.18 | 0.04 | 86 | 1019.3 |
| 20260506175513 | 41 | 290 | 5.0 | 14.0 | 0.00 | 0.18 | 0.04 | 86 | 1019.3 |
| 20260506175012 | 41 | 237 | 6.0 | 15.0 | 0.00 | 0.18 | 0.04 | 86 | 1019.3 |
| 20260506174510 | 41 | 230 | 6.0 | 16.0 | 0.00 | 0.18 | 0.04 | 87 | 1019.2 |
| 20260506174007 | 41 | 294 | 8.0 | 16.0 | 0.00 | 0.18 | 0.04 | 87 | 1019.3 |
| 20260506173509 | 41 | 269 | 8.0 | 16.0 | 0.00 | 0.18 | 0.04 | 87 | 1019.3 |
| 20260506173016 | 41 | 273 | 5.0 | 14.0 | 0.00 | 0.18 | 0.04 | 87 | 1019.5 |
| 20260506172506 | 41 | 235 | 4.0 | 9.0 | 0.00 | 0.18 | 0.04 | 87 | 1019.6 |
| 20260506172009 | 41 | 256 | 3.0 | 12.0 | 0.00 | 0.18 | 0.04 | 87 | 1019.6 |
| 20260506171506 | 41 | 274 | 3.0 | 13.0 | 0.01 | 0.18 | 0.04 | 87 | 1019.6 |
| 20260506171005 | 41 | 258 | 4.0 | 14.0 | 0.02 | 0.18 | 0.04 | 87 | 1019.7 |
| 20260506170503 | 41 | 264 | 4.0 | 14.0 | 0.02 | 0.18 | 0.04 | 86 | 1019.8 |
| 20260506170004 | 41 | 271 | 6.0 | 14.0 | 0.02 | 0.18 | 0.04 | 87 | 1019.8 |
| 20260506165503 | 41 | 252 | 6.0 | 17.0 | 0.02 | 0.18 | 0.04 | 86 | 1019.7 |
| 20260506165002 | 41 | 266 | 6.0 | 17.0 | 0.02 | 0.18 | 0.04 | 86 | 1019.7 |
| 20260506164607 | 42 | 261 | 5.0 | 11.0 | 0.02 | 0.18 | 0.04 | 86 | 1019.9 |
| 20260506164059 | 42 | 227 | 4.0 | 10.0 | 0.02 | 0.18 | 0.04 | 86 | 1019.9 |
| 20260506163558 | 42 | 267 | 3.0 | 10.0 | 0.03 | 0.18 | 0.04 | 85 | 1019.9 |
| 20260506163105 | 43 | 224 | 4.0 | 10.0 | 0.03 | 0.18 | 0.04 | 86 | 1020.1 |
| 20260506162555 | 43 | 292 | 3.0 | 10.0 | 0.03 | 0.18 | 0.04 | 85 | 1020.0 |
| 20260506162054 | 43 | 273 | 3.0 | 8.0 | 0.03 | 0.18 | 0.04 | 85 | 1020.0 |
| 20260506161624 | 43 | 268 | 1.0 | 8.0 | 0.02 | 0.17 | 0.03 | 85 | 1020.0 |
| 20260506161052 | 43 | 186 | 2.0 | 8.0 | 0.02 | 0.17 | 0.02 | 85 | 1019.9 |
| 20260506160551 | 43 | 259 | 1.0 | 6.0 | 0.02 | 0.17 | 0.02 | 84 | 1019.8 |
| 20260506160051 | 43 | 259 | 1.0 | 6.0 | 0.02 | 0.17 | 0.02 | 84 | 1019.8 |
| 20260506155550 | 43 | 207 | 2.0 | 6.0 | 0.02 | 0.16 | 0.02 | 84 | 1019.8 |
| 20260506155050 | 43 | 237 | 2.0 | 13.0 | 0.02 | 0.16 | 0.02 | 84 | 1019.7 |
| 20260506154551 | 44 | 345 | 3.0 | 13.0 | 0.02 | 0.16 | 0.02 | 83 | 1019.6 |
| 20260506154053 | 44 | 277 | 2.0 | 6.0 | 0.02 | 0.16 | 0.02 | 83 | 1019.6 |
| 20260506153552 | 44 | 240 | 1.0 | 5.0 | 0.01 | 0.15 | 0.01 | 82 | 1019.7 |
| 20260506153057 | 44 | 255 | 1.0 | 5.0 | 0.01 | 0.15 | 0.01 | 81 | 1019.6 |
| 20260506152551 | 44 | 230 | 1.0 | 5.0 | 0.01 | 0.15 | 0.01 | 81 | 1019.5 |
| 20260506152050 | 45 | 243 | 1.0 | 5.0 | 0.01 | 0.15 | 0.01 | 81 | 1019.5 |
| 20260506151550 | 45 | 207 | 1.0 | 10.0 | 0.01 | 0.15 | 0.01 | 80 | 1019.6 |
| 20260506151048 | 45 | 173 | 4.0 | 10.0 | 0.01 | 0.15 | 0.01 | 79 | 1019.6 |
| 20260506150551 | 45 | 246 | 4.0 | 12.0 | 0.00 | 0.14 | 0.00 | 78 | 1019.6 |
| 20260506150046 | 45 | 227 | 5.0 | 14.0 | 0.00 | 0.14 | 0.00 | 77 | 1019.6 |
| 20260506145545 | 45 | 190 | 2.0 | 9.0 | 0.00 | 0.14 | 0.00 | 77 | 1019.4 |
| 20260506145043 | 45 | 231 | 2.0 | 9.0 | 0.00 | 0.14 | 0.00 | 77 | 1019.2 |
| 20260506144544 | 45 | 263 | 1.0 | 7.0 | 0.00 | 0.14 | 0.00 | 77 | 1019.1 |
| 20260506144036 | 45 | 265 | 2.0 | 11.0 | 0.00 | 0.14 | 0.00 | 77 | 1019.1 |
| 20260506143535 | 45 | 257 | 5.0 | 11.0 | 0.00 | 0.14 | 0.00 | 77 | 1019.1 |
| 20260506143135 | 45 | 273 | 2.0 | 7.0 | 0.00 | 0.14 | 0.00 | 77 | 1019.0 |
| 20260506142534 | 45 | 281 | 1.0 | 7.0 | 0.00 | 0.14 | 0.00 | 77 | 1019.0 |
| 20260506142032 | 45 | 248 | 1.0 | 8.0 | 0.00 | 0.14 | 0.00 | 77 | 1019.0 |
| 20260506141533 | 45 | 270 | 2.0 | 8.0 | 0.00 | 0.14 | 0.00 | 77 | 1018.9 |
| 20260506141031 | 45 | 232 | 3.0 | 7.0 | 0.00 | 0.14 | 0.00 | 77 | 1018.9 |
| 20260506140530 | 45 | 245 | 1.0 | 10.0 | 0.00 | 0.14 | 0.00 | 77 | 1018.7 |
| 20260506140029 | 45 | 246 | 2.0 | 10.0 | 0.00 | 0.14 | 0.14 | 77 | 1018.7 |
| 20260506135527 | 46 | 275 | 2.0 | 8.0 | 0.00 | 0.14 | 0.14 | 77 | 1018.7 |
| 20260506135027 | 46 | 269 | 2.0 | 11.0 | 0.00 | 0.14 | 0.14 | 77 | 1018.5 |
| 20260506134527 | 46 | 257 | 2.0 | 9.0 | 0.00 | 0.14 | 0.14 | 76 | 1018.5 |
| 20260506134028 | 46 | 304 | 1.0 | 8.0 | 0.00 | 0.14 | 0.14 | 76 | 1018.6 |
| 20260506133528 | 46 | 267 | 3.0 | 13.0 | 0.00 | 0.14 | 0.14 | 76 | 1018.7 |
| 20260506133026 | 46 | 201 | 4.0 | 13.0 | 0.00 | 0.14 | 0.14 | 76 | 1018.7 |
| 20260506132532 | 46 | 293 | 2.0 | 8.0 | 0.00 | 0.14 | 0.14 | 76 | 1018.8 |
| 20260506132029 | 46 | 238 | 3.0 | 10.0 | 0.00 | 0.14 | 0.14 | 77 | 1018.9 |
| 20260506131531 | 46 | 223 | 3.0 | 14.0 | 0.00 | 0.14 | 0.14 | 77 | 1018.8 |
| 20260506131026 | 46 | 273 | 3.0 | 13.0 | 0.00 | 0.14 | 0.14 | 77 | 1018.9 |
| 20260506130526 | 46 | 273 | 4.0 | 13.0 | 0.00 | 0.14 | 0.14 | 78 | 1018.9 |
| 20260506130026 | 47 | 229 | 2.0 | 18.0 | 0.00 | 0.14 | 0.14 | 78 | 1018.8 |
| 20260506125528 | 47 | 276 | 5.0 | 18.0 | 0.00 | 0.14 | 0.14 | 79 | 1018.8 |
| 20260506125029 | 47 | 221 | 2.0 | 11.0 | 0.00 | 0.14 | 0.14 | 79 | 1018.8 |
| 20260506124525 | 47 | 287 | 4.0 | 15.0 | 0.00 | 0.14 | 0.14 | 79 | 1018.7 |
| 20260506124026 | 47 | 281 | 5.0 | 10.0 | 0.00 | 0.14 | 0.14 | 79 | 1018.6 |
| 20260506123526 | 47 | 267 | 2.0 | 9.0 | 0.00 | 0.14 | 0.14 | 80 | 1018.6 |
| 20260506123026 | 47 | 229 | 3.0 | 8.0 | 0.00 | 0.14 | 0.14 | 80 | 1018.5 |
| 20260506122526 | 47 | 285 | 2.0 | 9.0 | 0.00 | 0.14 | 0.14 | 81 | 1018.4 |
| 20260506122025 | 47 | 247 | 3.0 | 10.0 | 0.00 | 0.14 | 0.14 | 81 | 1018.4 |
| 20260506121526 | 47 | 255 | 3.0 | 10.0 | 0.00 | 0.14 | 0.14 | 82 | 1018.3 |
| 20260506121025 | 47 | 298 | 3.0 | 12.0 | 0.00 | 0.14 | 0.14 | 83 | 1018.3 |
| 20260506120529 | 47 | 255 | 4.0 | 12.0 | 0.00 | 0.14 | 0.14 | 83 | 1018.3 |
| 20260506120028 | 47 | 269 | 1.0 | 8.0 | 0.00 | 0.14 | 0.14 | 84 | 1018.2 |
| 20260506115526 | 47 | 265 | 2.0 | 8.0 | 0.00 | 0.14 | 0.14 | 84 | 1018.1 |
| 20260506115024 | 47 | 230 | 2.0 | 5.0 | 0.00 | 0.14 | 0.14 | 84 | 1018.1 |
| 20260506114530 | 47 | 250 | 1.0 | 8.0 | 0.00 | 0.14 | 0.14 | 84 | 1018.2 |
| 20260506114024 | 48 | 246 | 2.0 | 8.0 | 0.00 | 0.14 | 0.14 | 85 | 1018.1 |
| 20260506113524 | 48 | 294 | 3.0 | 8.0 | 0.00 | 0.14 | 0.14 | 85 | 1018.1 |
| 20260506113022 | 48 | 255 | 3.0 | 8.0 | 0.00 | 0.14 | 0.14 | 85 | 1018.2 |
| 20260506112523 | 48 | 298 | 1.0 | 8.0 | 0.00 | 0.14 | 0.14 | 85 | 1018.2 |
| 20260506112023 | 48 | 300 | 3.0 | 10.0 | 0.00 | 0.14 | 0.14 | 86 | 1018.2 |
| 20260506111524 | 48 | 300 | 2.0 | 10.0 | 0.00 | 0.14 | 0.14 | 86 | 1018.2 |
| 20260506111023 | 48 | 269 | 2.0 | 9.0 | 0.00 | 0.14 | 0.14 | 86 | 1018.3 |
| 20260506110523 | 48 | 255 | 1.0 | 8.0 | 0.00 | 0.14 | 0.14 | 86 | 1018.2 |
| 20260506110025 | 48 | 281 | 1.0 | 12.0 | 0.00 | 0.14 | 0.14 | 86 | 1018.2 |
| 20260506105523 | 48 | 254 | 5.0 | 14.0 | 0.00 | 0.14 | 0.14 | 86 | 1018.2 |
| 20260506105026 | 48 | 201 | 2.0 | 14.0 | 0.00 | 0.14 | 0.14 | 86 | 1018.3 |
| 20260506104527 | 49 | 266 | 3.0 | 10.0 | 0.00 | 0.14 | 0.14 | 87 | 1018.3 |
| 20260506104021 | 49 | 273 | 1.0 | 12.0 | 0.00 | 0.14 | 0.14 | 87 | 1018.4 |
| 20260506103521 | 49 | 264 | 5.0 | 16.0 | 0.00 | 0.14 | 0.14 | 87 | 1018.3 |
| 20260506103022 | 49 | 234 | 2.0 | 16.0 | 0.00 | 0.14 | 0.14 | 87 | 1018.2 |
| 20260506102521 | 49 | 252 | 4.0 | 17.0 | 0.00 | 0.14 | 0.14 | 87 | 1018.2 |
| 20260506102021 | 49 | 234 | 4.0 | 16.0 | 0.00 | 0.14 | 0.14 | 87 | 1017.9 |
| 20260506101538 | 50 | 245 | 7.0 | 24.0 | 0.00 | 0.14 | 0.14 | 87 | 1018.0 |
| 20260506101021 | 51 | 199 | 9.0 | 24.0 | 0.00 | 0.14 | 0.14 | 88 | 1017.9 |
| 20260506100521 | 51 | 249 | 8.0 | 14.0 | 0.01 | 0.14 | 0.14 | 89 | 1017.5 |
| 20260506100021 | 51 | 231 | 6.0 | 17.0 | 0.01 | 0.14 | 0.14 | 89 | 1017.3 |
| 20260506095520 | 52 | 227 | 7.0 | 17.0 | 0.02 | 0.14 | 0.14 | 89 | 1017.2 |
| 20260506095024 | 52 | 213 | 3.0 | 10.0 | 0.02 | 0.14 | 0.14 | 89 | 1017.2 |
| 20260506094524 | 52 | 229 | 1.0 | 8.0 | 0.05 | 0.14 | 0.14 | 88 | 1017.0 |
| 20260506094024 | 52 | 225 | 1.0 | 10.0 | 0.06 | 0.14 | 0.14 | 88 | 1016.9 |